This is the latest recevied weather packets stored in our database for station/object K7LDN-13. If no packets are shown the sender has not sent any weather packets the latest 10 day(s).
| Time | Temp. | Humidity | Pressure | Rain* | Wind** | Luminosity | Snow |
|---|---|---|---|---|---|---|---|
| 1777926200 | 20° C | 33% | 1010.8 hPa | 0 mm | - | 270 W/m² | - |
| 1777925897 | 20.56° C | 32% | 1010.8 hPa | 0 mm | - | 285 W/m² | - |
| 1777925594 | 21.11° C | 30% | 1010.7 hPa | 0 mm | - | 286 W/m² | - |
| 1777925291 | 22.22° C | 28% | 1010.7 hPa | 0 mm | - | 299 W/m² | - |
| 1777924988 | 21.67° C | 28% | 1010.9 hPa | 0 mm | - | 331 W/m² | - |
| 1777924684 | 22.22° C | 27% | 1010.9 hPa | 0 mm | - | 407 W/m² | - |
| 1777924380 | 21.67° C | 27% | 1010.9 hPa | 0 mm | - | 412 W/m² | - |
| 1777924077 | 21.67° C | 28% | 1011 hPa | 0 mm | - | 358 W/m² | - |
| 1777923773 | 21.67° C | 28% | 1010.9 hPa | 0 mm | - | 319 W/m² | - |
| 1777923469 | 21.67° C | 29% | 1010.9 hPa | 0 mm | - | 295 W/m² | - |
| 1777923167 | 21.67° C | 27% | 1011.2 hPa | 0 mm | - | 294 W/m² | - |
| 1777922865 | 21.67° C | 28% | 1011.1 hPa | 0 mm | - | 352 W/m² | - |
| 1777922563 | 21.67° C | 29% | 1011.1 hPa | 0 mm | - | 431 W/m² | - |
| 1777922261 | 21.67° C | 28% | 1011.4 hPa | 0 mm | - | 507 W/m² | - |
| 1777921958 | 21.67° C | 28% | 1011.4 hPa | 0 mm | - | 412 W/m² | - |
| 1777921653 | 21.67° C | 28% | 1011.2 hPa | 0 mm | - | 433 W/m² | - |
| 1777921350 | 21.11° C | 29% | 1011.2 hPa | 0 mm | - | 369 W/m² | - |
| 1777921047 | 21.67° C | 28% | 1011.5 hPa | 0 mm | - | 356 W/m² | - |
| 1777920744 | 21.67° C | 29% | 1011.6 hPa | 0 mm | - | 395 W/m² | - |
| 1777920440 | 21.67° C | 28% | 1011.5 hPa | 0 mm | - | 461 W/m² | - |
| 1777920136 | 21.67° C | 29% | 1011.6 hPa | 0 mm | - | 539 W/m² | - |
| 1777919832 | 21.67° C | 30% | 1011.7 hPa | 0 mm | - | 993 W/m² | - |
| 1777919529 | 22.22° C | 30% | 1011.5 hPa | 0 mm | - | 966 W/m² | - |
| 1777919227 | 22.22° C | 29% | 1011.8 hPa | 0 mm | - | 895 W/m² | - |
| 1777918924 | 21.67° C | 29% | 1011.7 hPa | 0 mm | - | 914 W/m² | - |
* Rain latest hour (hover to see other rain measurements)
** Current wind speed in m/s (hover to see current wind gust speed)